Temp
10 10 10 10 11 11 12 12 12 12 12 12 12 12 12 11 11 11 10 10 9 9
10 10 10 10 11 11 11 11 11 11 12 12 11 11 11 11 11 11 10 10 9 9
10 10 10 11 11 11 11 12 12 12 12 12 11 11 10 10 10 10 10 10 9 8
11 11 12 12 12 13 12 12 12 12 12 11 11 11 11 9 10 9 9 9 9 8
13 13 13 13 13 12 12 13 13 11 11 11 11 11 10 9 10 10 9 9 8 8
12 13 14 13 12 12 12 12 12 11 11 10 10 10 11 9 10 10 9 9 8 7
12 12 12 12 12 12 12 11 10 11 11 11 9 10 9 9 9 8 9 8 7 7
12 12 12 12 12 11 11 11 11 10 11 11 10 10 9 9 8 8 8 6 5 5
12 12 12 11 11 10 10 10 10 10 10 9 10 9 9 8 8 7 6 6 5 4
12 12 11 10 10 10 10 9 9 9 9 9 9 8 8 8 7 6 5 5 3 3
12 12 11 10 10 10 10 10 9 9 8 8 8 8 7 7 5 5 4 3 2 1
11 10 10 10 9 9 9 9 8 8 8 7 6 5 5 4 4 3 2 1 1 -0
10 9 10 10 9 9 8 8 7 6 5 4 4 3 2 2 2 1 1 0 -1 -2
9 9 8 8 7 7 7 6 5 5 4 3 2 2 1 0 0 -1 -1 -2 -2 -3
Height
1484 1490 1496 1501 1504 1508 1511 1515 1519 1521 1521 1523 1524 1525 1526 1527 1529 1531 1530 1528 1529 1530
1480 1488 1492 1497 1501 1503 1506 1509 1512 1513 1514 1516 1517 1517 1518 1520 1521 1522 1523 1518 1521 1524
1477 1483 1488 1491 1494 1495 1497 1501 1503 1504 1506 1507 1508 1510 1511 1511 1511 1514 1514 1515 1515 1514
1474 1478 1482 1483 1484 1486 1489 1491 1493 1495 1497 1499 1499 1499 1498 1501 1503 1504 1506 1507 1507 1503
1467 1472 1471 1468 1472 1476 1480 1483 1485 1487 1490 1490 1490 1490 1490 1492 1494 1495 1499 1500 1500 1496
1457 1461 1460 1460 1464 1468 1472 1475 1478 1480 1479 1480 1482 1482 1483 1485 1487 1489 1491 1492 1490 1493
1449 1451 1453 1454 1458 1461 1465 1467 1470 1470 1470 1472 1474 1476 1478 1479 1480 1481 1483 1484 1485 1487
1438 1444 1447 1449 1452 1456 1458 1459 1461 1462 1464 1466 1467 1469 1471 1472 1473 1475 1475 1478 1480 1481
1431 1434 1438 1442 1444 1448 1450 1452 1453 1455 1456 1459 1460 1462 1463 1465 1467 1468 1470 1471 1473 1475
1425 1429 1433 1436 1438 1441 1442 1444 1445 1447 1449 1451 1452 1455 1458 1459 1461 1463 1464 1465 1470 1470
1421 1425 1427 1431 1433 1435 1437 1439 1440 1441 1443 1445 1446 1449 1452 1454 1456 1458 1460 1463 1464 1467
1417 1421 1425 1428 1430 1432 1434 1435 1437 1439 1440 1441 1444 1447 1449 1451 1454 1456 1459 1461 1463 1465
1415 1418 1422 1424 1426 1428 1429 1431 1433 1435 1438 1441 1443 1446 1448 1451 1453 1455 1456 1458 1460 1462
1413 1416 1419 1421 1423 1425 1428 1431 1433 1436 1438 1440 1443 1445 1448 1450 1452 1453 1455 1455 1457 1458
Wind_Speed
44 44 45 43 41 41 40 38 35 33 31 32 32 34 34 35 35 36 34 35 33 32
44 44 44 44 43 42 40 38 35 33 33 32 32 34 35 37 35 35 34 31 31 33
43 42 42 43 43 41 40 41 39 38 36 35 35 35 35 34 33 35 36 35 36 33
40 40 39 42 43 42 44 43 42 40 39 37 38 38 38 43 35 36 34 35 36 40
33 31 37 46 46 48 46 40 41 43 42 38 40 34 36 38 39 37 37 34 37 32
43 33 32 42 45 51 49 46 46 43 43 36 40 30 30 30 32 37 39 40 33 34
44 43 46 45 39 36 38 39 38 42 37 33 37 35 34 38 37 36 36 37 29 25
41 44 45 44 44 42 39 39 40 37 37 34 33 35 33 31 30 32 32 27 22 21
36 37 36 38 37 37 36 37 36 35 38 35 34 35 30 30 29 26 22 24 25 23
30 33 35 35 32 29 27 28 29 32 33 33 28 28 28 21 23 23 22 21 22 21
28 29 30 29 25 25 23 21 22 21 21 22 21 22 24 24 20 19 19 19 19 19
25 22 23 22 17 17 20 21 20 20 19 20 19 19 17 16 16 16 17 16 15 15
14 12 14 16 18 20 22 21 20 18 15 15 15 14 13 13 13 14 14 13 13 13
12 14 15 18 19 19 18 17 17 17 16 16 14 14 14 13 12 12 12 12 12 14
Wind_Direction
208 212 217 220 223 227 232 236 241 246 254 258 262 267 269 268 269 269 271 268 263 266
211 216 221 224 228 233 237 244 247 254 260 263 264 269 269 269 268 274 269 280 268 267
215 220 227 232 236 241 246 247 252 257 260 264 265 267 269 274 270 270 268 269 273 258
219 224 230 235 238 240 243 247 251 253 257 263 273 271 259 262 266 273 271 273 274 261
223 233 242 238 238 242 243 248 256 258 262 263 265 265 263 267 267 261 273 274 278 249
224 220 237 245 246 246 249 250 254 262 260 266 255 271 271 263 274 265 268 274 260 249
228 226 234 242 248 254 256 257 259 259 267 260 263 265 275 271 272 272 270 272 249 246
236 237 240 247 252 257 263 265 262 257 256 260 264 268 269 269 273 268 257 244 235 234
244 244 247 250 255 257 261 259 261 266 264 264 264 268 258 268 265 251 238 235 234 233
245 245 246 247 253 253 253 258 263 262 260 258 254 258 254 238 235 232 234 229 229 228
239 240 243 245 245 251 247 254 258 253 247 245 238 233 235 239 230 223 220 224 227 233
238 242 246 249 245 245 243 240 230 230 230 221 219 222 227 226 215 212 216 221 232 244
223 225 232 238 241 230 218 216 216 211 204 201 204 197 200 207 214 217 221 233 249 262
214 218 228 227 214 212 212 209 204 202 193 195 198 196 200 209 225 236 238 246 260 273